Wetbulb
50.44 50.22 50.21 50.09 49.92 50.07 50.14 50.49 50.92 50.77 50.60 50.59 50.64 50.47 50.38 49.94 48.96 49.08 47.07 49.23 44.13 39.27 39.93 43.35 44.34 40.68 39.47 39.43 39.26 43.05 41.15 44.51 45.10 45.40 45.64 46.89 47.39 49.67 49.50 52.93 52.44 51.49 50.60 49.92 51.42 49.24 47.31 56.40 56.88 53.87 58.18 62.60 62.73 63.29
49.95 50.10 50.05 50.06 49.86 49.86 49.84 49.72 50.30 50.44 50.15 50.53 50.42 50.21 49.77 49.36 48.78 48.65 44.39 50.68 50.77 42.67 40.43 46.76 47.68 48.29 46.83 45.60 42.58 42.94 41.95 42.54 43.68 44.30 47.90 49.74 49.81 52.67 50.77 46.81 56.57 50.83 54.10 52.15 53.26 53.12 56.31 57.61 54.89 58.12 61.44 62.83 63.49 63.85
50.05 50.07 50.11 50.07 49.86 49.95 50.00 49.46 50.27 50.09 50.23 50.04 49.72 49.63 49.61 49.14 49.06 48.86 46.66 48.15 45.61 41.48 40.21 42.93 44.08 49.31 50.66 49.27 49.96 41.81 43.66 45.13 46.11 48.08 44.86 47.34 46.73 53.38 49.79 51.05 53.72 55.80 58.52 55.00 54.45 55.08 55.80 56.62 57.74 58.85 60.65 62.10 63.75 64.91
49.97 49.85 50.13 50.47 50.25 50.33 50.32 49.73 49.84 49.90 49.81 48.79 48.86 49.03 49.48 49.08 48.82 48.92 46.82 49.64 46.73 42.14 37.08 42.28 49.76 47.65 50.96 51.00 48.75 48.61 47.68 48.03 46.63 47.84 46.08 45.96 47.71 53.81 52.88 54.62 54.82 54.52 56.41 55.58 54.07 54.59 54.62 54.88 56.81 58.10 58.89 60.42 60.63 61.99
49.84 49.86 49.97 50.48 50.16 49.74 49.70 49.79 49.79 49.16 48.66 48.69 48.75 49.08 49.33 48.84 48.27 49.54 50.58 49.70 48.22 42.17 37.15 40.36 46.53 50.63 51.25 49.49 49.16 48.81 47.21 43.81 43.84 43.84 43.83 44.63 50.72 51.21 54.71 53.97 47.53 49.95 52.28 54.59 52.56 54.54 55.30 53.22 53.89 55.11 56.28 57.04 58.02 58.60
50.14 50.32 50.05 49.45 49.53 49.64 49.54 49.56 49.21 48.64 48.77 48.88 48.78 49.42 49.32 49.05 48.47 47.76 42.45 46.33 48.20 49.42 40.52 35.01 47.76 48.05 50.69 50.55 48.76 47.72 48.15 46.14 43.95 45.40 44.75 44.89 50.05 51.16 49.81 45.52 47.70 52.21 55.17 55.64 56.72 54.64 53.49 53.64 54.89 55.74 54.61 55.66 57.35 57.84
50.08 49.93 49.72 49.18 49.47 49.60 49.66 49.41 48.87 48.56 48.46 48.74 48.75 48.83 49.34 49.51 48.52 44.42 42.62 47.04 47.82 49.64 38.66 37.10 42.45 50.26 50.10 49.36 49.05 48.34 49.46 48.36 46.45 46.34 43.36 43.39 46.39 51.94 46.39 43.44 48.74 51.74 54.46 54.25 54.28 53.15 50.64 52.59 50.43 52.90 54.42 55.81 55.54 57.02
49.60 49.45 49.35 49.30 49.39 49.20 48.96 48.95 48.91 48.72 48.33 48.18 48.38 48.91 49.33 49.54 48.73 45.48 49.35 48.93 48.95 43.45 41.43 37.23 39.50 44.97 50.49 47.53 45.25 49.00 45.98 46.64 46.54 46.82 46.46 44.88 50.48 48.80 43.21 47.26 49.72 50.86 52.53 51.25 51.88 52.70 52.68 53.30 53.93 53.38 54.63 54.32 54.40 54.51
49.99 49.93 49.80 49.94 49.82 49.68 49.27 48.90 48.98 48.95 48.94 49.06 49.11 48.52 49.25 47.38 45.06 47.58 49.63 50.51 48.48 43.10 37.89 39.50 37.91 39.34 50.69 49.00 48.45 46.77 46.53 41.86 48.52 44.27 48.05 49.99 46.23 42.60 45.86 47.32 48.96 50.65 50.32 49.90 51.08 51.92 51.98 51.20 51.53 52.47 54.63 54.66 55.41 54.58
50.21 50.11 49.74 49.70 49.91 49.51 49.60 49.76 49.90 49.70 49.46 49.07 49.06 47.31 43.66 49.18 50.19 50.68 47.32 44.28 43.63 43.95 43.35 40.33 45.93 41.95 46.81 49.77 46.26 46.18 46.75 42.76 42.29 48.04 52.02 44.29 43.57 47.89 49.87 50.53 50.58 50.03 50.70 51.50 48.61 47.98 49.11 50.83 51.50 52.08 52.71 54.55 56.09 55.79
50.09 50.06 50.12 49.83 49.55 49.72 49.81 49.49 49.53 49.78 50.28 48.23 44.31 44.71 49.93 51.24 49.53 47.07 42.40 40.06 41.48 40.19 44.49 44.98 45.77 43.22 49.87 45.61 46.36 49.04 45.79 46.83 40.49 46.20 44.98 42.45 40.97 46.32 50.76 51.39 52.91 53.07 52.81 52.69 52.75 53.15 53.87 53.05 52.94 54.14 53.90 55.73 56.62 57.63
50.17 49.95 49.81 49.95 49.76 49.57 49.88 49.69 49.63 49.17 47.96 47.18 46.89 48.31 49.54 47.91 45.63 40.51 40.83 43.40 40.36 40.71 46.64 45.19 45.25 46.76 47.44 49.95 47.51 49.03 45.79 47.07 41.25 50.79 46.71 39.12 43.66 49.07 50.87 51.01 52.82 54.22 53.92 54.19 54.87 53.66 53.61 53.96 54.13 54.19 55.48 55.31 56.89 57.91
49.55 49.73 49.85 50.08 49.94 49.99 49.86 49.80 49.58 49.47 49.63 50.73 46.87 43.77 43.48 43.53 36.27 36.50 35.30 38.37 39.87 45.57 47.46 47.58 45.55 47.49 49.62 49.43 48.97 49.26 44.15 43.58 51.49 45.77 41.72 43.75 48.53 50.13 50.93 51.21 52.11 54.69 53.40 53.61 53.12 53.88 53.87 54.17 55.39 55.84 54.85 56.67 56.85 56.88
49.23 49.25 49.16 49.58 49.78 49.90 50.18 50.26 50.15 49.26 48.03 43.59 40.17 33.20 34.57 36.60 38.64 39.77 40.60 41.99 46.49 47.77 48.18 48.55 47.85 47.30 50.26 48.16 48.45 43.55 47.68 49.99 42.35 39.68 38.64 45.37 48.54 50.61 51.33 51.88 51.47 52.44 53.34 52.45 53.12 53.53 53.50 54.41 54.26 55.63 57.00 57.60 56.81 57.78
49.17 49.13 49.00 49.30 49.34 49.94 50.47 49.45 48.47 52.40 47.53 40.03 38.69 32.30 36.71 40.78 43.48 45.49 47.25 47.36 48.90 49.31 48.60 48.89 49.12 48.29 47.47 46.32 47.36 46.15 43.08 39.41 40.26 39.09 44.02 50.24 50.79 51.75 52.39 52.59 52.92 53.24 53.95 53.56 54.09 54.27 54.09 54.30 54.45 55.14 56.84 58.58 58.69 58.95
49.32 48.94 50.35 48.85 49.61 50.28 50.02 50.35 52.58 52.49 47.68 45.53 43.47 40.48 43.62 42.79 43.65 45.05 45.89 46.50 49.66 49.28 50.60 48.94 45.48 43.42 43.58 45.51 42.45 41.09 39.73 36.09 41.09 45.02 47.97 50.98 53.09 53.62 53.44 54.06 54.57 54.46 54.71 55.07 55.31 55.29 55.40 55.73 55.43 55.83 56.69 57.26 58.35 59.17
49.53 49.58 49.83 50.00 50.16 50.46 48.93 51.14 51.49 47.22 46.70 43.78 43.64 47.03 46.10 45.57 44.35 45.29 46.20 46.78 50.39 49.36 45.97 46.94 42.22 41.49 47.02 42.21 39.56 40.39 36.46 39.33 46.08 49.07 52.81 53.78 52.89 53.19 54.56 55.07 55.27 55.61 55.93 55.91 56.13 56.24 56.48 57.15 57.04 55.76 55.60 56.65 56.85 57.86
49.99 51.34 50.64 50.03 50.69 51.69 53.33 51.71 49.36 46.66 42.54 45.51 43.08 44.13 46.46 47.46 46.14 46.64 47.79 48.59 48.35 47.68 47.78 44.94 47.10 40.91 39.11 37.20 38.93 43.91 46.53 49.39 51.19 51.86 52.82 53.59 54.45 55.65 55.77 55.79 56.31 56.40 56.24 56.56 56.85 56.85 56.82 56.59 55.03 54.20 55.97 56.94 56.64 55.81
49.73 50.74 50.11 50.38 50.40 49.96 47.56 48.16 49.20 42.99 43.80 45.45 45.45 46.69 46.87 47.19 48.79 48.95 49.23 49.32 49.42 50.34 50.35 46.91 42.52 40.23 41.75 45.18 45.29 46.95 48.43 50.09 50.52 52.71 53.39 55.14 56.41 56.37 56.42 56.64 56.38 56.13 55.93 55.57 53.84 54.15 55.26 55.89 55.13 54.88 54.80 54.93 54.29 54.87
49.87 50.26 50.20 50.51 50.53 49.64 44.64 46.91 50.75 45.16 42.53 44.39 46.52 45.69 46.85 46.56 48.47 49.15 49.23 49.37 49.90 48.40 45.79 43.01 43.14 45.23 46.32 48.21 49.96 50.48 51.30 52.42 52.85 53.12 52.33 55.02 54.81 55.28 54.63 53.95 52.96 53.77 53.31 53.46 52.39 48.09 52.88 52.96 53.38 54.17 54.30 54.19 54.13 54.16
50.85 51.90 51.02 51.29 51.14 49.89 48.06 46.27 46.35 46.89 45.82 44.81 46.70 46.62 46.39 48.11 47.26 47.34 47.12 49.67 47.00 45.68 44.20 46.87 47.71 49.49 51.96 51.56 51.46 51.63 52.51 52.99 52.59 53.14 53.13 52.76 52.03 51.99 51.28 51.29 51.62 50.90 49.95 49.73 49.89 50.06 48.83 49.79 50.85 51.31 52.14 52.35 52.54 53.34
51.90 50.14 50.98 51.51 48.12 47.33 48.09 48.35 45.86 47.47 46.31 46.41 46.10 46.87 45.21 44.80 45.65 46.35 47.64 46.24 45.76 46.11 48.25 49.97 51.23 52.76 53.38 52.97 53.61 54.58 54.73 54.79 55.94 55.61 48.99 51.70 53.32 52.01 50.41 49.92 50.14 49.30 48.89 48.75 48.87 48.65 48.94 49.46 49.24 49.45 50.07 50.39 49.75 51.77
50.15 50.17 50.28 48.32 44.29 42.58 42.23 48.69 44.09 43.85 40.61 43.11 46.27 43.87 41.98 42.95 45.78 48.17 43.71 46.96 47.62 52.11 52.80 53.87 53.79 55.04 54.25 54.12 53.96 53.84 54.64 53.75 53.84 54.63 55.90 55.35 51.40 48.38 49.02 49.43 49.51 48.38 47.97 48.35 49.23 48.53 48.11 44.86 47.93 48.16 49.32 49.54 49.78 50.32
48.55 46.77 44.67 44.08 44.29 42.02 47.45 45.30 48.05 46.61 45.53 42.23 40.50 40.27 41.97 44.44 48.54 45.09 43.65 47.23 51.24 54.19 54.38 53.26 53.52 51.36 50.98 51.73 49.06 49.07 49.74 50.61 50.31 51.02 52.07 51.03 50.58 49.71 50.55 50.02 50.08 49.72 48.81 49.04 48.62 48.11 48.11 47.88 44.54 48.10 47.96 47.87 48.59 48.95
41.29 40.46 43.31 38.24 44.38 43.90 43.60 44.40 44.37 45.56 42.28 44.34 42.87 44.50 45.86 48.00 44.27 43.90 43.57 48.21 51.64 51.84 50.99 50.47 50.00 49.57 48.29 48.41 48.91 49.03 50.56 49.29 48.29 48.44 49.90 50.42 50.11 50.43 50.44 51.64 50.87 49.77 49.02 47.36 46.71 46.60 46.65 47.11 47.34 47.13 46.96 46.71 46.97 46.69
38.16 45.00 41.04 46.28 47.42 44.99 45.51 44.16 45.11 44.72 45.01 44.30 45.45 49.31 49.87 47.40 42.65 42.13 46.06 49.32 49.94 48.94 48.55 48.24 47.91 47.23 46.92 47.51 46.39 46.15 46.67 48.30 48.35 47.15 48.14 49.13 48.86 48.01 47.39 46.77 46.55 47.21 48.33 47.40 46.21 45.55 45.67 46.22 46.33 46.16 46.05 45.72 42.51 45.24
42.63 47.52 50.57 51.29 48.96 47.55 47.92 49.73 49.01 47.40 44.32 44.13 47.28 46.70 46.87 41.20 41.89 45.77 48.32 48.53 46.59 48.42 49.50 49.69 49.07 47.89 46.80 46.66 47.15 47.29 47.35 47.65 48.07 47.67 49.03 48.43 48.08 47.74 46.53 44.97 44.19 45.53 46.88 46.99 46.92 46.22 45.63 45.65 45.68 45.54 45.33 45.98 46.16 45.92
49.87 49.51 47.40 50.27 48.96 50.18 46.06 47.59 45.64 44.46 46.21 50.25 48.78 43.70 42.52 42.77 41.03 46.25 46.75 48.56 47.60 48.26 49.14 48.76 49.00 48.52 47.58 46.87 46.59 46.16 45.87 46.19 46.78 47.13 47.19 48.07 47.97 47.50 46.75 46.46 46.90 39.74 46.29 46.38 45.88 46.06 45.24 44.89 44.37 43.82 42.77 42.38 42.60 42.84
49.84 53.17 50.35 48.59 48.84 49.64 49.52 48.07 47.60 48.87 50.27 49.97 47.34 45.36 43.30 44.20 45.54 46.02 46.93 47.45 48.62 47.36 45.80 44.72 45.06 46.90 46.59 46.52 46.60 46.30 45.11 43.76 41.94 40.45 40.05 40.66 41.75 43.09 45.26 45.29 45.40 45.54 45.49 44.97 36.68 40.39 41.92 41.20 41.87 41.35 41.54 41.73 41.98 42.34
51.15 54.66 49.93 48.77 47.69 47.43 50.93 52.45 50.15 50.79 49.90 48.55 47.61 46.15 46.29 47.76 48.92 50.94 49.46 47.93 46.91 45.86 46.23 45.01 44.10 43.61 43.00 42.94 42.41 42.65 44.05 43.44 42.82 40.85 38.95 38.96 39.81 42.18 42.53 42.21 42.04 42.28 42.46 42.16 41.68 41.75 38.82 39.97 40.02 41.19 40.01 39.64 39.52 38.47
54.48 54.05 51.13 50.75 49.46 51.72 52.30 52.38 51.78 51.47 50.21 47.86 46.94 45.06 44.47 46.69 48.64 51.36 50.42 49.29 47.63 47.30 46.04 44.92 44.69 43.61 42.23 41.40 40.54 39.61 39.25 41.49 41.26 40.68 39.93 40.54 40.69 40.40 40.41 40.67 41.08 41.04 40.83 40.20 39.87 39.34 38.58 38.08 38.05 37.66 37.19 36.29 35.84 35.62
53.40 51.44 50.69 48.01 50.06 53.75 53.27 52.50 50.06 47.31 45.41 46.70 47.21 49.62 48.59 47.58 45.72 49.87 49.16 48.97 47.39 45.93 41.87 43.84 42.30 41.34 42.03 42.28 41.97 41.43 36.98 40.36 39.08 38.64 37.35 37.45 37.42 38.02 39.02 39.46 39.54 39.46 39.07 38.54 38.42 37.98 37.46 36.72 36.13 34.79 34.58 34.84 35.30 35.32
52.44 51.76 51.23 50.24 49.37 48.31 52.28 51.98 49.80 46.80 47.92 47.69 48.33 50.13 50.09 47.84 44.56 48.92 49.05 47.58 45.58 44.65 43.73 43.44 43.17 42.72 41.92 41.33 40.79 40.70 39.20 40.87 36.85 33.39 33.87 32.80 32.37 33.26 37.01 37.69 37.75 37.82 37.59 37.50 37.38 37.13 36.00 34.90 34.05 34.89 34.96 34.62 33.62 34.22
MSLP
1017.95 1017.29 1016.63 1016.00 1015.42 1014.87 1014.33 1013.89 1013.61 1013.46 1013.16 1013.06 1012.93 1012.84 1012.76 1012.72 1012.73 1013.04 1012.84 1012.89 1013.22 1012.29 1010.69 1009.86 1008.82 1008.02 1008.03 1007.63 1006.07 1005.05 1004.74 1003.79 1002.53 1000.73 998.29 995.02 992.68 991.24 990.76 990.31 991.16 991.65 991.87 991.63 992.58 993.84 994.16 995.33 994.46 994.41 994.80 992.75 990.74 989.31
1017.28 1016.56 1015.94 1015.31 1014.71 1014.23 1013.78 1013.38 1013.09 1012.91 1012.64 1012.45 1012.28 1012.29 1012.23 1012.22 1012.32 1012.48 1012.42 1011.93 1012.20 1012.14 1010.44 1008.97 1008.37 1007.77 1007.09 1006.95 1006.88 1006.32 1005.34 1004.72 1003.56 1002.15 999.80 997.69 994.34 992.08 991.30 990.39 990.83 991.15 991.16 992.02 994.09 994.31 996.04 996.23 996.51 996.17 995.52 994.11 991.98 990.95
1016.64 1016.00 1015.35 1014.66 1014.08 1013.60 1013.23 1012.85 1012.66 1012.47 1012.22 1011.91 1011.88 1011.86 1011.76 1011.79 1011.77 1011.97 1011.94 1011.74 1012.12 1011.36 1009.88 1007.72 1005.72 1004.88 1005.41 1005.87 1006.58 1006.11 1005.28 1004.85 1004.30 1003.93 1002.42 1000.32 997.72 994.86 993.27 991.97 991.58 992.82 992.70 993.67 995.24 996.58 996.91 996.93 997.28 996.67 996.59 996.02 994.57 993.57
1016.08 1015.43 1014.77 1014.02 1013.38 1012.95 1012.69 1012.50 1012.35 1012.12 1011.82 1011.75 1011.70 1011.57 1011.40 1011.33 1011.34 1011.48 1011.54 1011.19 1011.47 1011.06 1009.18 1005.16 1004.12 1003.93 1003.98 1004.11 1004.71 1005.32 1005.00 1005.22 1005.53 1004.64 1003.44 1001.55 998.80 996.82 995.31 994.95 994.55 995.75 995.47 994.98 996.00 997.28 997.65 997.61 997.91 998.14 998.08 997.48 996.87 996.19
1015.55 1014.94 1014.28 1013.50 1012.89 1012.67 1012.57 1012.37 1012.10 1011.86 1011.73 1011.66 1011.56 1011.41 1011.20 1011.10 1011.17 1011.03 1010.85 1010.60 1010.63 1010.86 1008.41 1005.70 1004.22 1002.82 1002.59 1003.45 1003.79 1004.52 1005.22 1005.80 1006.17 1005.61 1004.34 1002.29 999.42 998.22 997.27 997.33 998.76 999.29 998.24 996.22 996.23 997.44 997.57 998.92 999.26 1000.27 998.97 998.05 997.73 997.32
1015.35 1014.71 1014.10 1013.69 1013.27 1012.94 1012.63 1012.28 1012.03 1011.86 1011.77 1011.59 1011.48 1011.30 1011.12 1011.01 1010.85 1010.21 1009.69 1010.66 1010.37 1009.98 1009.36 1006.61 1003.57 1002.58 1002.30 1002.50 1003.25 1004.05 1004.64 1005.34 1006.06 1005.37 1004.31 1003.26 1000.82 999.73 998.66 999.78 1000.94 1000.31 999.56 999.39 998.13 999.08 999.86 1000.19 1000.75 1000.39 1000.14 999.80 998.84 998.56
1015.32 1014.79 1014.32 1013.94 1013.55 1013.09 1012.66 1012.33 1012.14 1011.96 1011.80 1011.64 1011.49 1011.30 1011.13 1010.90 1010.59 1010.08 1010.14 1010.14 1010.35 1010.30 1009.90 1007.20 1003.76 1002.21 1002.31 1002.44 1002.88 1003.41 1004.12 1004.48 1004.56 1004.53 1004.86 1003.82 1001.83 1000.13 1001.10 1001.57 1001.66 1001.20 1000.46 1000.30 1000.42 1000.53 1001.48 1002.24 1001.42 1001.93 1001.82 1000.57 999.90 999.52
1015.50 1015.04 1014.65 1014.15 1013.75 1013.41 1013.02 1012.66 1012.33 1012.03 1011.81 1011.61 1011.41 1011.16 1010.75 1010.50 1010.37 1009.93 1009.76 1010.06 1010.26 1010.26 1009.32 1007.08 1004.45 1002.49 1001.59 1000.89 1001.73 1002.76 1002.99 1004.08 1003.40 1004.03 1004.32 1002.92 1001.18 1001.24 1002.50 1002.97 1002.47 1002.44 1002.37 1002.25 1002.15 1002.17 1002.36 1003.01 1002.14 1002.61 1002.66 1002.04 1001.17 1000.82
1015.74 1015.25 1014.82 1014.34 1013.92 1013.58 1013.21 1012.83 1012.44 1012.05 1011.66 1011.31 1011.02 1010.58 1010.10 1009.81 1009.19 1009.20 1009.65 1009.68 1009.84 1010.30 1008.60 1006.54 1004.11 1001.89 1000.91 1000.23 1000.82 1001.88 1002.41 1002.84 1002.86 1003.00 1002.09 1001.64 1001.52 1002.70 1003.92 1003.86 1003.69 1003.36 1003.46 1003.59 1003.82 1003.82 1003.97 1003.62 1003.97 1003.14 1003.21 1001.88 1001.59 1001.80
1015.96 1015.44 1015.01 1014.57 1014.17 1013.79 1013.38 1012.93 1012.36 1011.75 1011.24 1010.76 1010.28 1009.45 1008.69 1008.48 1009.12 1009.00 1009.32 1008.90 1009.06 1008.77 1007.82 1005.74 1003.76 1002.15 1001.42 999.74 1000.00 1000.19 1000.80 1001.86 1001.77 1001.00 1001.07 1002.55 1003.91 1004.60 1004.65 1004.66 1004.65 1004.69 1004.65 1004.42 1004.26 1004.68 1004.83 1004.61 1003.72 1003.34 1002.53 1002.37 1002.18 1002.11
1016.43 1015.84 1015.30 1014.85 1014.44 1013.99 1013.53 1013.01 1012.42 1011.55 1010.75 1010.45 1010.24 1009.46 1008.84 1008.74 1008.18 1007.59 1007.47 1007.28 1007.51 1006.63 1005.39 1004.35 1003.34 1002.37 1001.55 1000.41 999.28 999.35 999.16 999.65 1000.18 1000.34 1001.32 1003.05 1004.64 1005.35 1005.14 1005.05 1004.99 1005.11 1005.16 1005.20 1005.23 1005.25 1005.11 1004.53 1003.93 1003.15 1003.68 1003.48 1002.77 1002.38
1016.74 1016.24 1015.66 1015.11 1014.60 1014.11 1013.60 1013.13 1012.70 1011.89 1011.58 1011.82 1011.74 1010.90 1009.54 1008.08 1007.42 1007.06 1006.12 1005.70 1005.99 1004.52 1003.58 1002.90 1002.51 1001.94 1001.29 1000.85 999.69 999.06 998.39 998.61 999.25 999.97 1000.73 1003.65 1005.36 1005.60 1005.57 1005.54 1005.12 1004.94 1004.87 1004.64 1004.58 1004.47 1004.50 1003.99 1003.72 1004.01 1003.79 1003.79 1003.68 1003.33
1016.95 1016.39 1015.80 1015.29 1014.77 1014.15 1013.53 1013.09 1012.79 1012.29 1011.45 1011.12 1011.07 1010.30 1009.46 1008.74 1008.19 1007.47 1006.48 1005.60 1004.97 1003.75 1002.99 1002.44 1001.55 1001.11 1000.74 1000.28 998.97 998.26 998.09 999.12 999.74 1000.75 1002.92 1004.51 1005.55 1005.79 1005.97 1005.63 1005.13 1005.00 1005.16 1004.99 1005.07 1004.79 1004.47 1004.31 1004.05 1003.93 1003.93 1003.71 1003.54 1003.16
1016.94 1016.38 1015.69 1015.18 1014.59 1013.86 1013.28 1012.77 1012.41 1011.80 1011.44 1010.98 1010.89 1010.74 1010.68 1009.86 1009.10 1007.91 1007.24 1006.39 1005.36 1004.19 1003.14 1002.48 1001.04 1000.80 999.95 999.33 998.95 998.87 999.41 999.69 1001.10 1002.69 1004.58 1005.73 1005.97 1006.03 1006.08 1005.88 1005.54 1005.23 1005.18 1005.10 1004.44 1004.19 1004.08 1003.64 1003.99 1004.02 1003.83 1003.82 1003.59 1003.29
1016.65 1016.12 1015.46 1014.77 1014.30 1013.49 1013.00 1012.60 1012.24 1011.74 1011.53 1011.48 1011.67 1011.45 1010.93 1010.17 1008.83 1007.41 1006.42 1005.22 1004.63 1004.18 1003.52 1002.03 1001.14 1001.04 1000.40 1000.13 1000.36 1000.47 1000.98 1002.52 1003.97 1005.26 1005.85 1006.14 1006.29 1006.18 1006.05 1005.99 1005.78 1005.50 1005.19 1004.80 1004.54 1004.38 1004.39 1004.23 1004.07 1004.00 1004.19 1003.84 1003.74 1003.43
1016.29 1015.60 1014.97 1014.71 1014.08 1013.33 1012.74 1012.08 1011.73 1011.35 1011.20 1011.05 1011.05 1010.81 1010.10 1008.98 1007.68 1006.82 1006.30 1005.33 1004.85 1004.18 1003.32 1002.79 1002.08 1001.89 1002.02 1002.31 1002.76 1003.61 1004.32 1005.81 1006.31 1006.64 1006.60 1006.49 1006.38 1006.21 1006.03 1005.80 1005.63 1005.60 1005.36 1004.89 1004.66 1004.53 1004.21 1004.20 1004.35 1004.29 1004.12 1003.95 1003.97 1003.74
1016.10 1015.36 1015.20 1014.61 1013.88 1013.02 1012.70 1011.95 1011.28 1010.86 1010.49 1010.47 1010.33 1010.05 1009.50 1008.60 1008.14 1007.20 1006.69 1006.00 1005.32 1003.96 1003.41 1003.15 1003.38 1003.85 1003.85 1004.16 1005.49 1006.94 1007.85 1007.89 1007.06 1007.03 1006.74 1006.77 1006.69 1006.45 1006.14 1005.82 1005.62 1005.39 1005.07 1004.91 1004.76 1004.67 1004.65 1004.50 1004.21 1004.05 1003.94 1003.81 1003.44 1003.73
1015.90 1015.28 1015.08 1014.62 1013.88 1012.53 1012.04 1011.74 1011.13 1010.70 1010.61 1010.50 1010.06 1010.00 1009.62 1008.86 1008.39 1007.65 1007.25 1006.70 1005.83 1005.09 1004.50 1004.75 1005.00 1005.47 1006.11 1006.85 1007.30 1007.78 1007.78 1007.74 1007.54 1007.37 1007.04 1006.89 1006.80 1006.45 1006.07 1005.69 1005.39 1005.33 1005.24 1005.05 1004.82 1004.35 1004.01 1003.81 1003.39 1003.35 1003.40 1003.47 1003.22 1003.23
1016.33 1015.82 1015.23 1014.68 1014.23 1013.58 1012.30 1011.88 1011.85 1011.06 1010.94 1010.88 1010.74 1010.11 1009.62 1008.96 1008.68 1008.31 1007.58 1007.12 1006.75 1006.43 1005.52 1005.58 1006.39 1007.05 1007.64 1007.90 1007.86 1007.79 1007.64 1007.41 1007.22 1007.18 1006.86 1006.86 1006.72 1006.42 1006.20 1005.96 1005.58 1005.55 1005.36 1005.32 1005.22 1004.58 1004.28 1004.55 1004.40 1004.02 1003.71 1003.66 1003.32 1003.48
1015.92 1015.57 1015.17 1014.52 1014.17 1013.25 1012.47 1012.50 1012.41 1011.75 1011.42 1011.61 1010.94 1010.31 1009.71 1009.41 1008.95 1008.28 1007.78 1007.44 1006.60 1006.43 1006.53 1007.23 1007.82 1008.29 1008.22 1008.43 1008.36 1008.09 1007.89 1007.81 1007.51 1007.01 1006.93 1007.04 1006.57 1006.33 1006.62 1006.42 1006.18 1006.10 1005.61 1005.69 1005.62 1005.48 1005.08 1005.01 1004.91 1004.75 1004.73 1004.61 1004.30 1004.10
1015.38 1015.00 1014.74 1014.25 1013.66 1013.45 1013.27 1013.12 1012.47 1012.74 1012.51 1011.57 1011.17 1010.70 1010.15 1009.76 1009.31 1008.99 1008.71 1008.17 1007.84 1008.01 1008.24 1008.69 1008.72 1008.86 1009.18 1009.21 1009.14 1008.93 1008.55 1008.28 1007.82 1007.77 1007.73 1007.47 1007.34 1006.83 1006.81 1006.79 1006.74 1006.43 1006.32 1006.37 1006.09 1005.97 1006.05 1006.06 1006.01 1005.83 1005.19 1004.93 1005.08 1004.66
1015.81 1015.76 1014.89 1014.41 1014.00 1013.66 1013.48 1013.71 1013.45 1013.12 1012.51 1011.79 1011.43 1011.16 1010.83 1010.64 1010.47 1010.56 1010.58 1009.65 1009.93 1010.47 1010.38 1010.00 1009.65 1009.30 1009.18 1009.15 1009.10 1009.03 1008.87 1008.39 1008.29 1008.12 1008.11 1008.17 1007.71 1007.15 1007.21 1007.22 1007.00 1006.97 1007.14 1007.11 1006.92 1006.80 1006.68 1006.71 1006.78 1006.37 1005.86 1005.83 1005.48 1005.03
1016.24 1015.98 1015.19 1014.63 1014.13 1013.97 1014.09 1013.81 1013.25 1013.35 1012.94 1012.60 1012.01 1011.66 1011.90 1011.79 1011.89 1012.03 1011.69 1011.50 1011.45 1011.15 1010.73 1010.36 1010.03 1009.80 1009.50 1009.47 1009.30 1009.29 1009.05 1008.42 1008.13 1008.05 1008.23 1008.15 1007.96 1008.05 1007.84 1007.78 1007.67 1007.62 1007.54 1007.65 1007.61 1007.52 1007.38 1007.60 1007.15 1006.98 1006.50 1006.25 1005.97 1005.66
1016.61 1016.06 1015.28 1014.89 1014.51 1014.07 1013.93 1013.42 1013.35 1013.09 1012.97 1013.02 1012.86 1012.67 1012.51 1012.36 1012.34 1012.21 1012.00 1011.88 1011.54 1011.29 1011.02 1010.59 1010.22 1009.83 1009.45 1009.38 1009.29 1009.55 1009.29 1008.70 1008.25 1007.89 1008.10 1007.74 1007.56 1008.04 1008.08 1007.98 1007.92 1008.06 1008.37 1008.11 1007.95 1007.90 1007.74 1007.60 1007.67 1007.09 1006.92 1006.68 1006.45 1006.21
1016.47 1016.30 1015.70 1015.28 1014.92 1014.08 1013.29 1012.82 1012.81 1012.65 1012.53 1012.47 1012.26 1012.11 1012.19 1012.40 1012.00 1012.10 1012.28 1012.26 1011.94 1011.57 1011.28 1010.97 1010.73 1010.45 1010.25 1010.25 1010.22 1010.18 1010.24 1009.70 1009.17 1008.52 1008.76 1008.55 1008.32 1008.01 1007.85 1008.06 1008.29 1008.73 1008.86 1008.81 1008.58 1008.49 1008.31 1008.09 1007.81 1007.68 1007.66 1007.39 1007.55 1007.43
1015.72 1015.22 1015.06 1014.31 1013.92 1013.54 1012.95 1012.29 1012.18 1012.26 1012.12 1011.92 1011.82 1011.91 1011.98 1011.77 1011.65 1012.36 1012.93 1013.13 1012.82 1012.29 1011.96 1011.65 1011.37 1011.33 1011.41 1011.52 1011.41 1011.28 1011.11 1010.90 1010.43 1009.83 1009.94 1009.78 1009.43 1009.15 1008.93 1008.78 1008.69 1008.78 1009.44 1009.59 1009.37 1009.07 1008.79 1008.47 1008.25 1008.17 1007.92 1007.83 1007.78 1007.90
1014.65 1013.99 1013.92 1014.09 1013.71 1013.41 1012.60 1012.35 1012.28 1011.88 1011.33 1011.17 1011.37 1011.44 1011.37 1011.61 1012.41 1013.44 1013.79 1013.93 1013.57 1013.38 1013.03 1012.65 1012.46 1012.35 1012.40 1012.50 1012.53 1012.45 1012.11 1011.64 1011.18 1011.03 1010.85 1010.70 1010.60 1010.73 1010.70 1010.51 1010.41 1010.78 1010.91 1010.27 1010.07 1009.75 1009.32 1009.01 1008.75 1008.64 1008.50 1008.37 1008.18 1008.01
1014.01 1013.64 1013.05 1012.64 1012.80 1012.52 1011.87 1011.32 1011.14 1010.95 1010.90 1011.21 1011.42 1011.49 1012.26 1013.00 1014.39 1014.64 1014.54 1014.50 1014.64 1014.27 1014.05 1014.01 1013.73 1013.63 1013.57 1013.62 1013.48 1013.28 1012.96 1012.61 1012.05 1011.71 1011.21 1010.53 1010.69 1010.87 1011.62 1011.59 1011.37 1011.66 1011.15 1011.27 1011.16 1010.62 1010.73 1010.32 1010.04 1009.83 1009.64 1009.33 1009.06 1009.10
1013.00 1012.50 1012.84 1011.96 1011.57 1011.41 1011.17 1010.85 1010.60 1010.99 1011.55 1011.37 1011.68 1012.73 1014.15 1015.39 1015.77 1015.56 1015.60 1015.47 1015.38 1015.52 1015.66 1015.62 1015.58 1014.77 1014.47 1014.25 1013.94 1013.58 1013.58 1013.57 1013.24 1012.83 1012.47 1012.03 1011.96 1012.26 1012.49 1012.36 1012.03 1011.79 1011.57 1011.48 1012.16 1011.89 1011.92 1011.74 1011.37 1011.02 1010.48 1009.97 1009.64 1009.34
1011.87 1011.89 1011.58 1011.18 1010.90 1010.79 1011.23 1011.16 1011.38 1011.88 1012.36 1013.06 1014.04 1015.30 1016.20 1016.61 1017.01 1017.03 1016.87 1016.88 1016.74 1016.39 1016.20 1015.77 1015.79 1015.52 1015.10 1014.85 1014.67 1014.55 1014.37 1014.89 1014.87 1014.75 1014.22 1013.71 1013.66 1013.67 1013.60 1013.39 1013.14 1012.88 1012.68 1012.42 1012.08 1011.86 1011.83 1011.86 1011.22 1010.69 1010.66 1010.51 1010.28 1010.38
1011.58 1011.14 1010.77 1010.72 1010.85 1011.26 1011.51 1011.95 1012.63 1013.10 1013.72 1014.41 1015.32 1015.77 1016.18 1016.76 1017.20 1017.21 1017.11 1017.01 1016.73 1016.10 1015.91 1015.74 1015.63 1016.05 1015.93 1015.77 1015.77 1015.76 1015.61 1016.10 1016.41 1016.44 1016.55 1015.79 1015.34 1015.09 1014.86 1014.50 1014.10 1013.78 1013.47 1013.22 1012.82 1012.50 1012.44 1012.17 1011.75 1011.48 1011.35 1011.37 1011.40 1011.30
1011.12 1011.07 1010.88 1010.50 1010.91 1011.69 1012.07 1011.84 1012.53 1013.73 1014.63 1015.08 1015.40 1015.53 1015.65 1015.94 1016.06 1016.57 1017.07 1016.42 1016.02 1016.02 1016.68 1016.52 1016.62 1016.79 1017.12 1016.94 1017.02 1017.08 1017.60 1017.24 1017.61 1017.75 1017.82 1017.51 1017.08 1016.68 1015.88 1015.33 1014.95 1014.54 1014.19 1013.73 1013.36 1013.07 1012.99 1012.81 1012.62 1012.70 1012.42 1012.17 1011.89 1011.61
1010.74 1010.58 1010.61 1010.34 1010.37 1010.49 1011.18 1011.81 1012.47 1013.74 1014.03 1014.30 1014.82 1014.91 1014.92 1015.17 1015.87 1016.88 1017.39 1017.34 1017.28 1017.09 1017.16 1017.35 1017.48 1017.62 1017.92 1017.89 1017.98 1017.68 1017.72 1017.61 1018.16 1018.46 1018.49 1018.53 1018.31 1017.82 1016.84 1016.41 1015.98 1015.39 1014.86 1014.18 1013.85 1013.55 1013.41 1013.36 1013.25 1012.95 1012.68 1012.42 1012.26 1012.02
Wind_Speed
23 23 23 23 22 21 20 19 17 18 15 14 14 13 13 10 5 2 3 8 5 4 11 20 24 19 11 9 9 8 7 5 4 6 7 11 11 12 16 18 25 18 17 13 11 11 14 10 3 1 12 18 13 10
22 23 23 23 22 21 19 17 15 14 13 14 14 10 10 8 6 3 4 6 8 6 8 17 21 21 20 21 16 8 9 8 4 4 4 7 5 3 10 12 7 16 14 8 11 1 6 7 2 4 11 10 9 6
22 22 22 22 22 20 17 15 14 11 13 10 6 9 11 6 7 7 2 1 2 4 9 16 16 17 23 23 17 11 6 5 4 5 5 4 8 4 6 8 14 3 5 6 11 6 8 13 10 10 6 5 11 12
23 22 22 22 21 18 13 11 10 12 8 5 7 9 9 7 7 8 4 5 4 2 6 6 2 4 6 15 22 22 15 3 5 6 3 4 5 5 3 4 7 8 7 9 9 10 12 14 13 8 8 10 14 17
19 19 21 17 12 9 8 10 11 6 5 6 7 9 7 3 3 7 5 5 4 3 6 11 22 6 7 15 13 18 16 12 5 3 3 4 6 4 2 5 4 7 7 1 6 11 9 9 9 1 8 13 13 17
16 18 14 11 11 11 11 10 7 4 5 7 7 9 6 4 3 5 2 4 5 6 4 5 8 3 2 6 14 13 11 7 3 5 2 4 14 5 2 3 8 6 4 3 7 13 14 14 9 9 10 10 14 16
16 13 12 12 14 14 12 8 6 6 6 7 7 7 7 4 5 3 2 2 2 2 3 5 5 1 3 9 7 7 9 4 5 3 1 4 11 1 3 3 7 7 11 14 14 15 11 5 7 10 9 9 13 14
12 13 13 13 12 11 11 10 10 8 8 9 9 9 9 9 8 4 1 6 4 2 4 4 5 4 6 7 7 7 5 2 4 3 3 6 2 4 5 7 9 13 16 15 16 15 11 11 16 3 6 8 11 11
12 11 12 12 12 12 11 11 12 11 12 12 13 13 5 5 3 1 3 6 4 2 3 3 4 3 2 2 6 5 7 5 1 5 4 1 6 6 6 11 12 14 10 14 13 13 10 11 9 11 9 8 10 8
13 11 10 12 10 10 10 14 17 15 12 11 7 3 1 1 7 6 3 5 5 5 5 5 4 4 5 1 6 7 4 7 4 4 5 4 5 10 9 9 8 9 10 9 12 12 10 5 8 10 12 10 9 6
14 13 11 10 10 11 13 13 16 18 8 4 5 4 6 5 5 3 2 2 2 4 4 4 5 6 1 4 3 1 3 5 4 3 4 3 4 4 7 10 7 7 7 6 8 5 4 4 7 7 4 1 5 7
12 12 11 10 11 12 13 13 14 10 6 7 6 6 5 4 2 5 3 3 4 3 3 5 7 5 3 3 5 3 3 4 6 1 4 4 5 4 8 8 7 6 5 8 5 6 5 4 3 4 3 4 3 3
12 12 12 12 13 14 15 15 13 13 10 2 3 3 5 4 4 6 10 5 3 7 6 8 7 3 5 5 4 2 4 5 3 4 5 4 9 8 7 4 5 10 6 6 6 6 6 5 4 6 4 6 3 6
13 12 13 13 16 19 20 18 13 8 3 3 5 6 4 4 5 3 7 6 7 9 11 8 4 5 4 4 4 4 4 1 5 5 5 5 7 9 6 3 5 5 6 4 6 7 7 9 8 6 6 5 5 6
14 13 14 13 21 22 20 13 6 1 2 3 3 4 4 5 6 5 5 5 5 7 7 6 3 5 5 4 5 6 4 6 7 4 2 7 7 6 7 6 5 5 4 5 5 5 5 5 5 7 6 6 6 6
17 14 5 18 22 23 15 8 2 2 1 1 3 2 6 4 10 10 10 10 9 8 3 4 3 4 6 4 7 9 5 6 4 4 3 4 7 5 5 5 5 5 4 4 5 4 5 7 6 4 5 7 7 6
15 5 14 19 23 21 6 5 3 4 4 4 4 7 7 7 9 9 9 10 10 6 5 3 6 6 4 5 6 6 3 4 3 3 5 8 6 4 4 5 5 6 5 5 5 4 4 3 4 5 6 6 7 6
7 14 17 19 17 9 2 3 3 3 3 4 5 8 7 6 9 10 8 9 7 6 6 5 5 8 5 4 3 3 3 1 3 4 4 4 4 4 4 5 6 7 7 7 7 5 5 7 6 6 5 6 3 5
14 14 16 17 9 5 5 4 4 4 4 5 7 7 6 6 8 7 7 7 4 3 1 3 6 5 4 4 5 5 5 5 4 3 4 4 5 7 8 7 6 7 7 8 9 7 7 8 7 6 6 6 6 6
17 11 13 13 9 3 3 3 2 4 5 5 6 8 5 8 7 8 8 8 6 6 7 6 6 5 5 5 5 5 5 6 4 1 4 6 7 7 9 7 6 6 6 7 8 11 8 7 7 8 7 6 7 7
9 8 11 6 4 5 3 4 3 3 4 4 7 6 5 6 8 9 9 7 8 7 7 6 5 5 5 5 5 5 4 5 5 4 4 4 5 6 7 6 6 7 8 7 8 8 8 8 8 8 8 8 8 8
4 10 4 4 3 3 3 4 4 4 4 4 5 5 4 6 8 9 9 7 6 5 5 5 5 5 7 9 6 5 6 7 6 3 2 1 5 4 5 6 6 6 7 8 8 8 8 9 9 10 9 9 8 8
8 3 3 4 3 3 1 5 4 5 4 5 5 5 5 5 6 5 4 5 2 2 3 4 5 7 9 11 12 11 9 8 5 7 5 4 4 3 3 4 5 6 6 7 7 8 8 6 7 8 8 8 8 7
3 4 5 4 5 4 3 4 1 2 2 3 3 3 3 4 5 1 3 3 3 4 5 7 6 6 8 11 10 11 11 10 9 7 8 5 3 4 4 4 4 4 6 7 7 8 8 8 6 8 9 9 8 8
4 5 2 4 1 4 4 4 4 2 3 4 3 3 3 3 2 4 4 5 7 7 7 7 9 11 11 11 11 11 15 12 11 9 9 9 6 4 3 2 2 3 6 8 9 10 10 9 8 8 9 9 9 10
3 2 3 5 2 4 5 6 6 5 3 1 2 1 1 2 2 6 4 7 7 8 9 9 9 8 10 10 10 10 11 10 9 9 9 9 9 9 9 8 8 7 10 10 10 11 12 11 10 11 10 11 5 9
3 5 1 1 3 3 3 2 2 3 3 4 2 2 2 2 6 5 6 7 5 7 6 7 8 9 9 9 10 10 10 10 9 7 5 6 6 7 8 8 9 10 10 11 11 12 11 11 10 11 11 11 12 12
3 2 6 5 2 2 5 4 2 3 3 2 2 4 4 6 6 4 5 5 3 3 8 9 10 9 8 8 8 9 10 11 11 10 10 5 7 8 12 10 10 7 8 8 9 11 12 13 12 13 12 12 10 9
3 1 2 5 3 2 2 5 5 5 5 4 3 4 5 5 6 6 8 10 12 11 10 9 7 6 8 10 10 9 8 10 13 15 15 10 9 9 9 10 10 10 10 10 7 6 9 10 11 11 12 11 11 10
4 2 4 4 5 5 4 4 7 6 8 9 9 11 8 6 7 7 5 4 4 4 1 3 7 8 8 10 10 11 9 10 10 11 11 11 11 11 10 11 10 10 10 10 11 12 9 12 11 9 10 10 9 10
5 4 5 3 5 5 6 9 11 12 12 11 9 6 3 3 1 2 4 4 3 3 6 7 8 9 11 11 10 10 8 9 12 14 14 11 11 11 11 11 10 10 10 11 11 10 11 10 10 10 11 13 14 12
4 6 7 7 6 6 7 3 6 5 3 1 2 2 4 4 4 3 5 7 6 7 6 8 8 9 10 8 8 7 5 7 9 11 15 11 11 12 11 9 10 9 10 10 10 9 11 12 11 12 11 11 12 12
3 5 5 5 5 5 3 3 4 4 3 3 2 2 2 4 6 4 2 6 7 7 7 7 7 7 8 9 10 8 7 9 9 9 9 9 11 12 10 9 10 11 12 10 10 10 11 13 11 12 12 12 13 13
Wind_Direction
313 311 309 309 309 312 310 301 293 291 295 284 277 279 284 281 259 182 242 214 213 248 272 276 275 267 257 275 280 357 304 206 258 246 242 232 231 205 217 185 179 197 208 219 218 225 234 9 336 169 337 304 296 283
314 315 313 309 307 310 307 310 302 295 295 291 288 273 283 260 214 213 238 216 213 231 275 291 285 273 260 259 268 268 289 314 308 298 301 294 293 262 208 208 162 198 208 169 239 144 88 65 12 293 294 342 32 97
312 314 316 313 308 307 304 304 303 301 309 306 283 287 287 244 213 215 234 226 187 267 274 254 254 245 227 233 230 247 234 233 257 351 310 290 269 306 220 251 176 154 120 175 179 104 81 94 70 53 47 44 42 75
315 316 316 313 306 304 305 308 305 307 302 286 293 300 290 255 249 238 225 221 219 289 277 298 177 248 240 215 213 223 247 333 348 322 301 281 276 3 21 332 341 9 304 158 95 124 107 63 60 56 82 86 82 78
329 322 320 329 355 9 335 316 311 306 303 289 300 310 296 236 251 257 239 253 219 247 305 306 293 241 215 211 203 208 221 234 290 288 248 277 301 311 180 132 46 337 344 241 165 153 110 86 66 28 84 79 76 81
332 333 340 358 357 360 351 345 343 322 329 312 316 318 346 1 291 275 237 14 302 232 292 289 347 277 332 164 189 198 200 199 166 261 322 295 276 283 1 86 2 331 326 238 105 86 94 104 97 69 75 79 79 75
341 359 15 13 1 354 3 17 9 350 334 335 340 335 328 312 277 305 303 313 79 78 239 277 304 2 97 137 128 145 173 171 225 166 80 295 294 238 48 50 5 55 71 73 97 101 83 33 65 39 17 64 69 60
5 3 2 359 359 1 6 7 355 339 333 328 318 306 286 280 267 247 292 208 186 257 258 289 296 250 193 163 140 157 139 195 224 90 195 234 271 66 73 28 87 87 82 59 52 52 58 92 90 113 118 12 43 58
348 352 353 353 8 12 8 0 347 335 321 313 306 296 258 218 240 213 192 193 184 288 306 255 293 31 316 140 103 142 183 181 223 234 222 351 26 56 61 63 58 60 76 88 76 69 62 48 51 53 32 33 49 58
359 6 5 358 3 3 359 7 355 335 313 300 275 260 219 61 354 286 135 202 180 199 227 260 310 301 333 321 158 166 181 166 225 204 120 75 67 52 54 61 56 51 50 61 76 55 38 13 73 54 17 1 0 30
5 9 15 16 5 353 350 352 347 328 272 351 347 322 341 322 247 223 255 234 185 247 210 242 292 317 131 307 46 255 173 163 219 111 87 71 76 82 43 44 52 90 86 61 104 100 90 323 342 59 96 43 25 28
2 2 4 1 352 343 337 336 341 342 346 321 300 289 270 277 277 283 296 173 189 318 350 308 332 290 287 272 256 153 197 214 84 243 92 69 115 119 80 42 66 64 81 115 115 120 138 209 37 24 44 30 344 60
347 348 346 349 344 332 327 325 329 323 293 223 242 304 333 0 7 357 352 26 348 332 355 337 330 328 217 219 252 300 52 69 160 51 60 58 104 98 105 49 61 104 113 100 118 112 108 97 60 43 42 7 25 51
329 318 319 313 332 329 327 324 324 324 312 13 3 14 24 2 355 341 338 318 314 319 331 331 11 321 348 332 335 37 51 40 80 54 57 97 78 89 93 106 87 109 114 119 91 82 66 54 59 47 50 38 44 51
320 316 300 309 332 329 337 341 334 339 19 58 47 32 352 285 265 299 312 300 338 323 316 295 17 334 2 27 9 9 47 53 21 59 86 111 95 79 93 99 106 94 86 79 64 62 58 51 45 64 44 53 55 62
326 307 326 329 329 330 333 304 285 316 90 272 98 14 336 334 11 7 1 356 355 331 268 252 353 3 34 18 26 11 40 29 15 61 8 70 87 80 68 62 60 59 44 47 70 77 55 48 38 27 68 58 57 46
318 338 344 329 327 317 310 306 312 11 9 16 11 19 358 8 357 347 352 349 331 327 22 1 31 14 335 39 38 32 17 274 333 88 84 73 56 7 29 46 46 34 28 30 44 59 45 46 33 46 60 45 34 45
321 328 336 330 329 313 314 350 325 8 33 25 351 357 348 336 347 348 345 349 345 7 10 43 21 23 43 40 47 111 188 306 26 53 30 53 31 15 13 24 27 17 16 17 14 8 25 8 14 41 42 30 327 34
314 315 321 327 331 301 342 28 337 12 14 3 351 352 342 337 8 339 345 0 357 327 338 49 59 40 53 38 39 42 25 19 50 79 71 42 29 20 13 9 24 21 19 27 20 12 41 43 17 1 8 6 3 32
301 291 330 321 316 319 349 38 307 341 7 349 334 346 341 358 345 357 23 10 31 46 41 52 58 48 35 36 11 11 10 3 352 63 74 31 16 21 36 22 28 34 53 55 57 21 34 31 22 12 19 5 341 354
293 1 320 321 15 18 25 354 23 9 331 322 351 346 359 1 17 20 17 357 54 37 62 44 51 53 21 13 357 351 351 339 350 10 13 25 30 42 50 46 42 41 41 34 26 30 24 15 7 350 350 351 352 335
318 328 309 345 2 8 47 24 334 330 298 341 359 351 15 13 10 18 343 17 36 17 7 8 27 27 45 45 29 16 352 342 334 353 307 341 353 29 31 29 21 34 36 22 14 7 359 5 358 340 338 348 321 331
292 271 328 331 337 40 19 357 16 20 15 360 349 24 13 350 11 341 16 19 351 356 1 355 2 47 50 55 59 49 26 17 32 40 37 31 46 64 37 36 21 15 8 19 4 359 353 342 358 335 338 335 335 331
209 357 7 359 347 6 351 7 40 5 38 23 30 19 338 324 333 35 80 74 348 16 31 51 74 83 76 56 48 37 13 5 3 24 18 359 43 76 12 7 6 39 4 354 354 349 347 342 326 338 345 333 336 337
329 355 350 9 294 316 342 1 25 35 37 13 30 72 31 317 28 56 47 33 40 52 66 60 57 44 41 40 30 25 17 5 354 347 32 348 340 311 301 12 27 29 8 351 349 343 341 331 330 340 330 329 344 334
42 60 15 357 17 332 352 341 19 14 357 16 38 14 270 306 54 58 46 14 29 42 43 39 44 50 47 33 23 15 8 4 354 2 17 357 2 355 354 346 344 356 19 343 337 331 327 327 326 324 324 328 300 288
10 37 52 140 301 296 259 233 296 300 326 16 49 309 287 39 56 57 24 27 30 48 46 46 44 41 35 30 23 14 6 355 9 353 359 6 25 26 10 359 350 10 332 330 339 330 328 326 332 334 333 334 332 342
341 316 329 1 268 220 302 321 319 346 347 26 288 13 40 27 53 24 30 54 55 48 49 38 37 31 28 24 17 10 8 360 358 358 345 355 20 27 16 351 359 339 333 32 357 3 358 348 349 344 336 329 328 341
270 321 304 288 280 222 325 352 6 45 2 302 6 53 80 63 47 38 31 29 33 34 31 28 4 352 16 10 8 9 23 5 0 359 357 358 5 10 6 359 355 357 357 352 73 46 26 352 329 335 330 328 333 335
357 335 290 299 330 35 53 13 59 64 68 71 88 86 80 71 46 41 48 33 24 39 308 3 24 13 7 2 2 4 31 22 15 8 355 2 2 1 358 355 353 351 352 346 343 343 9 345 332 335 346 341 340 351
334 309 312 329 35 58 80 92 87 78 82 88 96 112 124 124 168 122 48 22 355 14 12 13 23 23 5 6 10 5 12 34 23 18 8 350 358 357 349 346 348 346 349 346 344 349 356 345 347 355 354 357 358 349
331 357 350 13 57 94 153 178 70 95 94 96 142 182 168 187 132 94 19 337 9 22 44 13 16 20 15 8 24 42 3 23 22 12 13 2 358 352 341 358 354 356 353 350 353 355 359 358 360 1 352 348 341 341
354 15 15 6 22 33 86 170 131 112 148 123 111 145 36 32 67 73 63 35 20 17 20 24 21 26 25 18 16 8 3 14 89 89 65 32 4 347 344 10 359 360 351 354 356 354 4 2 356 348 345 345 345 341